Regional Weather Roundup
Issued by NWS Goodland, KS

Home | Current Version | Previous Version | Graphics & Text | Print | Product List | Glossary On
Versions: 1 2 3 4 5 6 7 8 9 10 11 12 13 14 15 16 17 18 19 20 21 22 23 24 25 26 27 28 29 30 31 32 33 34 35 36 37 38 39 40 41 42 43 44 45 46 47 48 49 50
000
ASUS43 KGLD 190008
RWRGLD

GOODLAND FORECAST AREA HOURLY WEATHER ROUNDUP
NATIONAL WEATHER SERVICE GOODLAND KS
500 PM MST SAT FEB 18 2017

...OFFICIAL OBSERVATIONS...

CITY           SKY/WX    TMP DP  RH WIND       PRES   REMARKS
GOODLAND KS    CLEAR     56  28  34 SE7       29.71F
HILL CITY KS   CLOUDY    65  36  34 E5        29.73F
IMPERIAL NEB   CLEAR     56  30  37 SE12      29.72R
MCCOOK NEB     CLEAR     58  35  42 SE7       29.73S
AKRON CO       CLOUDY    58  20  22 SE16      29.67F
BURLINGTON CO  CLOUDY    58  24  27 SE13      29.72F
LIMON CO       CLOUDY    55  18  23 S15G25    29.71R
$$

...UNOFFICIAL OBSERVATIONS...

CITY           SKY/WX    TMP DP  RH WIND       PRES   REMARKS
LENORA KS        N/A     63  32  31 CALM        N/A
NORTON KS      CLEAR     59  30  33 SE5       29.73F
SHARON SPRINGS   N/A     58  28  32 S8          N/A
TRENTON NEB      N/A     55  32  41 S6          N/A
KIT CARSON CO    N/A     57  25  29 MISG        N/A
YUMA CO        FAIR      55  21  26 SE9       29.68F
$$




USA.gov is the U.S. government's official web portal to all federal, state and local government web resources and services.